Weather History for Alma, MI

Change the Weather History Date:

Wednesday, December 25, 2013

  Actual Average Record
Temperature  
Mean Temperature 20 °F -  
Max Temperature 24 °F 29 °F 56 °F (1982)
Min Temperature 15 °F 16 °F -14 °F (2000)
Degree Days  
Heating Degree Days 46    
Moisture  
Dew Point 20 °F    
Average Humidity 92    
Maximum Humidity 96    
Minimum Humidity 86    
Precipitation  
Precipitation 0.00 in - - ()
Sea Level Pressure  
Sea Level Pressure 30.17 in    
Wind  
Wind Speed 9 mph (South)    
Max Wind Speed 15 mph    
Max Gust Speed 21 mph    
Visibility 5 miles    
Events Snow    
Averages and records for this station are not official NWS values.
T = Trace of Precipitation, MM = Missing Value Source: NWS Daily Summary

Daily Weather History Graph

Daily Weather History Graph

Search for Another Location

Airport:

Trip Planner

Search our weather history database for the weather conditions in past years. The results will help you decide how hot, cold, wet, or windy it might be!

Date:

Astronomy

Dec. 25, 2013 Rise Set
Actual Time 8:09 AM EST 5:08 PM EST
Civil Twilight 7:37 AM EST 5:41 PM EST
Nautical Twilight 7:01 AM EST 6:17 PM EST
Astronomical Twilight 6:26 AM EST 6:51 PM EST
Moon 12:27 AM EST (12/25) 12:20 PM EST (12/25)
Length of Visible Light 10h 03m
Length of Day
8h 58m
Waning Gibbous, 49% of the Moon is Illuminated
Dec 25
Waning Gibbous
Jan 1
New
Jan 7
First Quarter
Jan 15
Full
Jan 24
Last Quarter

Hourly Weather History & Observations

Time (EST) Temp. Windchill Dew Point Humidity Pressure Visibility Wind Dir Wind Speed Gust Speed Precip Events Conditions
5:30 AM 15.6 °F 7.0 °F 14.7 °F 96% 30.31 in 10.0 mi SSE 5.8 mph - N/A   Overcast
5:35 AM 15.6 °F 8.3 °F 14.7 °F 96% 30.31 in 10.0 mi SSE 4.6 mph - N/A   Overcast
5:50 AM 15.8 °F 6.1 °F 14.9 °F 96% 30.29 in 10.0 mi SSE 6.9 mph - N/A   Overcast
6:10 AM 16.5 °F 5.1 °F 15.4 °F 96% 30.31 in 10.0 mi South 9.2 mph - N/A   Overcast
6:30 AM 16.9 °F 7.4 °F 15.8 °F 96% 30.31 in 10.0 mi South 6.9 mph - N/A   Overcast
6:50 AM 17.2 °F 10.2 °F 15.4 °F 93% 30.30 in 10.0 mi SSE 4.6 mph - N/A   Overcast
7:10 AM 17.4 °F 7.1 °F 14.9 °F 90% 30.28 in 7.0 mi SE 8.1 mph - N/A Snow Light Snow
7:30 AM 17.6 °F 7.3 °F 14.9 °F 89% 30.27 in 10.0 mi SE 8.1 mph - N/A   Overcast
7:50 AM 18.0 °F 8.7 °F 14.9 °F 88% 30.28 in 10.0 mi SSE 6.9 mph - N/A   Overcast
8:11 AM 18.3 °F 10.2 °F 14.9 °F 86% 30.28 in 7.0 mi SSE 5.8 mph - N/A Snow Light Snow
8:31 AM 18.5 °F 8.4 °F 15.6 °F 89% 30.27 in 2.5 mi SSE 8.1 mph - N/A Snow Light Snow
8:53 AM 18.5 °F 9.3 °F 16.0 °F 90% 30.27 in 4.0 mi SSE 6.9 mph - N/A Snow Light Snow
9:13 AM 19.0 °F 10.0 °F 16.5 °F 90% 30.26 in 2.5 mi South 6.9 mph - N/A Snow Light Snow
9:33 AM 19.2 °F 9.3 °F 16.7 °F 90% 30.26 in 2.5 mi SSE 8.1 mph - N/A Snow Light Snow
9:53 AM 19.8 °F 9.9 °F 17.1 °F 89% 30.25 in 5.0 mi South 8.1 mph - N/A Snow Light Snow
10:13 AM 19.9 °F 9.3 °F 17.4 °F 90% 30.25 in 4.0 mi South 9.2 mph - N/A Snow Light Snow
10:33 AM 20.3 °F 8.3 °F 17.6 °F 89% 30.25 in 5.0 mi South 11.5 mph - N/A Snow Light Snow
10:54 AM 20.8 °F 9.0 °F 18.1 °F 89% 30.24 in 3.0 mi South 11.5 mph 17.3 mph N/A Snow Light Snow
11:09 AM 21.0 °F 8.6 °F 18.3 °F 89% 30.23 in 2.0 mi South 12.7 mph 17.3 mph N/A Snow Light Snow
11:31 AM 21.4 °F 9.7 °F 18.7 °F 89% 30.21 in 2.5 mi South 11.5 mph 19.6 mph N/A Snow Light Snow
11:51 AM 21.7 °F 8.5 °F 19.0 °F 89% 30.21 in 3.0 mi South 15.0 mph 20.7 mph N/A Snow Light Snow
12:11 PM 22.1 °F 8.9 °F 19.2 °F 89% 30.19 in 3.0 mi South 15.0 mph - N/A Snow Light Snow
12:31 PM 22.5 °F 9.9 °F 19.6 °F 89% 30.18 in 3.0 mi South 13.8 mph 17.3 mph N/A Snow Light Snow
12:51 PM 22.8 °F 12.2 °F 19.8 °F 88% 30.17 in 5.0 mi South 10.4 mph 19.6 mph N/A Snow Light Snow
1:11 PM 22.8 °F 10.9 °F 19.9 °F 89% 30.16 in 3.0 mi South 12.7 mph 20.7 mph N/A Snow Light Snow
1:32 PM 23.0 °F 11.1 °F 20.3 °F 89% 30.15 in 2.0 mi South 12.7 mph 17.3 mph N/A Snow Light Snow
1:52 PM 23.4 °F 12.2 °F 20.8 °F 90% 30.15 in 2.0 mi South 11.5 mph - N/A Snow Light Snow
2:07 PM 23.4 °F 11.6 °F 21.0 °F 91% 30.14 in 2.0 mi South 12.7 mph - N/A Snow Light Snow
2:29 PM 23.5 °F 12.4 °F 21.2 °F 91% 30.13 in 1.8 mi South 11.5 mph - N/A Snow Light Snow
2:49 PM 23.7 °F 12.6 °F 21.4 °F 91% 30.13 in 1.8 mi South 11.5 mph - N/A Snow Light Snow
3:09 PM 23.9 °F 13.5 °F 21.7 °F 91% 30.13 in 2.0 mi SSW 10.4 mph - N/A Snow Light Snow
3:29 PM 23.9 °F 12.3 °F 21.7 °F 91% 30.13 in 1.8 mi South 12.7 mph 17.3 mph N/A Snow Light Snow
3:49 PM 23.7 °F 13.3 °F 21.7 °F 92% 30.13 in 2.0 mi SSW 10.4 mph - N/A Snow Light Snow
4:09 PM 23.9 °F 12.9 °F 21.9 °F 92% 30.13 in 2.0 mi South 11.5 mph - N/A Snow Light Snow
4:30 PM 23.9 °F 13.5 °F 21.9 °F 92% 30.13 in 2.5 mi South 10.4 mph - N/A Snow Light Snow
4:50 PM 23.9 °F 13.5 °F 22.1 °F 93% 30.12 in 3.0 mi South 10.4 mph - N/A Snow Light Snow
5:12 PM 23.7 °F 12.6 °F 22.1 °F 94% 30.12 in 2.5 mi South 11.5 mph - N/A Snow Light Snow
5:32 PM 23.9 °F 14.2 °F 22.3 °F 94% 30.12 in 5.0 mi South 9.2 mph - N/A Snow Light Snow
5:52 PM 23.9 °F 12.9 °F 22.3 °F 94% 30.11 in 7.0 mi South 11.5 mph - N/A Snow Light Snow
6:12 PM 23.9 °F 12.3 °F 22.3 °F 94% 30.11 in 7.0 mi South 12.7 mph - N/A   Overcast
6:32 PM 23.9 °F 12.9 °F 22.5 °F 94% 30.11 in 10.0 mi South 11.5 mph 17.3 mph N/A   Overcast
6:52 PM 23.9 °F 13.5 °F 22.1 °F 93% 30.11 in 10.0 mi South 10.4 mph - N/A   Overcast
7:12 PM 24.3 °F 14.6 °F 22.5 °F 93% 30.11 in 10.0 mi South 9.2 mph - N/A   Overcast
7:32 PM 24.4 °F 14.2 °F 22.5 °F 92% 30.10 in 10.0 mi South 10.4 mph - N/A   Overcast
7:50 PM 24.4 °F 14.9 °F 22.5 °F 92% 30.10 in 7.0 mi SSW 9.2 mph - N/A   Overcast
8:10 PM 24.6 °F 15.1 °F 22.6 °F 92% 30.10 in 10.0 mi SSW 9.2 mph 16.1 mph N/A   Overcast
8:30 PM 24.6 °F 15.8 °F 22.6 °F 92% 30.09 in 7.0 mi SSW 8.1 mph - N/A   Overcast
8:50 PM 24.6 °F 15.1 °F 22.8 °F 93% 30.09 in 5.0 mi South 9.2 mph - N/A Snow Light Snow
9:10 PM 24.4 °F 14.9 °F 22.8 °F 94% 30.08 in 5.0 mi South 9.2 mph - N/A Snow Light Snow
9:30 PM 24.4 °F 15.6 °F 23.0 °F 94% 30.08 in 3.0 mi SSW 8.1 mph - N/A Snow Light Snow
9:50 PM 24.4 °F 14.9 °F 23.0 °F 94% 30.07 in 3.0 mi SSW 9.2 mph - N/A Snow Light Snow
10:10 PM 24.4 °F 14.2 °F 23.0 °F 94% 30.07 in 4.0 mi South 10.4 mph - N/A Snow Light Snow
10:30 PM 24.6 °F 15.1 °F 23.2 °F 94% 30.06 in 5.0 mi SSW 9.2 mph - N/A Snow Light Snow
10:51 PM 24.6 °F 15.1 °F 23.4 °F 95% 30.06 in 3.0 mi South 9.2 mph - N/A Snow Light Snow
11:13 PM 24.8 °F 15.3 °F 23.5 °F 95% 30.05 in 5.0 mi SSW 9.2 mph - N/A Snow Light Snow
11:33 PM 24.8 °F 15.3 °F 23.5 °F 95% 30.04 in 5.0 mi South 9.2 mph - N/A Snow Light Snow
11:53 PM 24.8 °F 16.9 °F 23.7 °F 96% 30.03 in 4.0 mi SSW 6.9 mph - N/A Snow Light Snow